Find Zhongxing 1D

NORAD ID: 49505 Int'l Des: 2021-114 Owner: ZLZB Country: CN operational
HEOCIRCULARGSOGEO

Aktuelle Ansicht

3D-Globus wird geladen...

Über Zhongxing 1D

Beschreibung wird geladen...

Nächste Überflüge

Passes for default location (London). Set your location on the main map for personalized predictions.

Höhenverlauf

Loading altitude history...

Zweizeiliger Elementsatz

1 49505U 21114A 26150.17237093 -.00000324 00000-0 00000+0 0 9997
2 49505 0.0489 89.7136 0000757 87.6541 262.5676 1.00271863 16638
Epoch: 30. Mai 2026 • Age: 9 hours

Aktueller Status

Höhe 35783.5 km
Geschwindigkeit 3.07 km/s
Subsatellitenpunkt 0.00°N, 130.19°E
Startdatum 26. Nov. 2021
Alter 4.5 years
Typ other

Technische Details

Klassifizierung Payload
Masse 5250.00 kg
Trockenmasse 2500.00 kg
Gesamtmasse 5250.00 kg
Länge 5.00 m
Durchmesser 2.50 m
Spannweite 30.00 m
Form Box + 2 Pan
Hersteller CAST
Bus-Typ DFH-4
Phasenstatus In Orbit
Besitzer/Staat ZLZB/CN

Most Searched